Language: 


Des rapports , des résumés tant et plus, au choix de chacun....


Données statistiques de la station
Quotidien Rapport Mai 8, 2017 Unités:  Anglais    Métrique   les deux
« Précédent Jour
Suivant Jour »
Quotidien Hebdomadaire Mensuel Annuel Actuel
  Haut: Bas: Moyen:
Température: 56.8 °F 45.3 °F 49.8 °F
Pt de rosée: 55.4 °F 42.8 °F 47.3 °F
Humidité: 98 % 77 % 90 %
Vitesse du vent: 17.2 mph 0 mph 5.7 mph
Rafales: 19.9 mph - -
Vent:- - West
Pression: 30.2 in 30.1 in -
Précipitation: 0.02 in    
Historical Graphs
 
 
Données statistiques pour Mai 8, 2017
Heure Température Point de rosée Pression Vent Vitesse du vent Refales Humidité Pluie (taux horaire)
00:00 50 °F 44.6 °F 30.2 in WNW 6 mph 7.6 mph 82 % 0 in
00:05 50 °F 44.6 °F 30.2 in NW 6.3 mph 7.8 mph 83 % 0 in
00:07 50 °F 44.6 °F 30.2 in NW 5.4 mph 7.8 mph 83 % 0 in
00:12 49.8 °F 46.4 °F 30.2 in West 3.1 mph 7.8 mph 84 % 0 in
00:17 49.8 °F 44.6 °F 30.2 in North 2.2 mph 7.4 mph 83 % 0 in
00:29 49.8 °F 44.6 °F 30.2 in NW 2.7 mph 6.3 mph 83 % 0 in
00:34 49.8 °F 44.6 °F 30.2 in North 3.4 mph 8.1 mph 83 % 0 in
00:39 49.8 °F 44.6 °F 30.2 in NNW 6.3 mph 8.1 mph 82 % 0 in
00:44 49.8 °F 44.6 °F 30.2 in Calm   7.2 mph 82 % 0 in
00:49 49.8 °F 44.6 °F 30.2 in Calm   7.2 mph 82 % 0 in
00:54 49.8 °F 44.6 °F 30.2 in NW 2.5 mph 5.6 mph 82 % 0 in
00:59 49.8 °F 44.6 °F 30.2 in WNW 2.9 mph 7.6 mph 82 % 0 in
01:05 49.8 °F 44.6 °F 30.2 in NNW 8.7 mph 8.7 mph 83 % 0 in
01:10 49.6 °F 44.6 °F 30.2 in NNW 3.8 mph 8.7 mph 84 % 0 in
01:15 49.5 °F 46.4 °F 30.2 in North 5.4 mph 8.7 mph 85 % 0 in
01:20 49.5 °F 46.4 °F 30.2 in North 5.4 mph 7.6 mph 86 % 0 in
01:25 49.3 °F 46.4 °F 30.2 in WNW 5.4 mph 7.6 mph 86 % 0 in
01:30 49.3 °F 46.4 °F 30.2 in NNW 4 mph 7.6 mph 86 % 0 in
01:35 49.3 °F 46.4 °F 30.2 in WNW 2.7 mph 6.5 mph 87 % 0 in
01:40 49.3 °F 46.4 °F 30.2 in NW 3.8 mph 6.5 mph 87 % 0 in
01:45 49.1 °F 46.4 °F 30.2 in WNW 3.8 mph 5.4 mph 88 % 0 in
01:50 49.1 °F 46.4 °F 30.2 in NNW 3.6 mph 14.1 mph 89 % 0 in
01:55 48.7 °F 46.4 °F 30.2 in NNW 5.8 mph 14.1 mph 91 % 0 in
02:00 48.7 °F 46.4 °F 30.2 in NNW 3.1 mph 8.7 mph 91 % 0 in
02:05 48.4 °F 46.4 °F 30.2 in NE 3.6 mph 11 mph 92 % 0 in
02:10 48 °F 46.4 °F 30.2 in NE 7.6 mph 11 mph 93 % 0 in
02:15 48 °F 46.4 °F 30.2 in NNW 3.6 mph 10.5 mph 93 % 0 in
02:20 47.8 °F 46.4 °F 30.2 in NNW 1.1 mph 8.7 mph 94 % 0 in
02:25 47.7 °F 46.4 °F 30.2 in North 3.8 mph 8.1 mph 94 % 0 in
02:30 47.7 °F 46.4 °F 30.2 in NNW 5.6 mph 8.1 mph 95 % 0 in
02:35 47.7 °F 46.4 °F 30.2 in NNW 2.2 mph 6.5 mph 95 % 0 in
02:40 47.5 °F 46.4 °F 30.2 in North 3.4 mph 6.3 mph 95 % 0 in
02:45 47.5 °F 46.4 °F 30.2 in North 3.4 mph 7.2 mph 95 % 0 in
02:50 47.3 °F 46.4 °F 30.2 in NNW 6.5 mph 7.2 mph 95 % 0 in
02:55 47.3 °F 48.2 °F 30.2 in WNW 3.4 mph 6.7 mph 96 % 0 in
03:00 47.3 °F 48.2 °F 30.2 in NNW 4.9 mph 7.2 mph 96 % 0 in
03:05 47.3 °F 48.2 °F 30.2 in NNW 3.4 mph 8.7 mph 96 % 0 in
03:10 47.3 °F 48.2 °F 30.2 in NNE 6 mph 8.7 mph 96 % 0 in
03:15 47.3 °F 48.2 °F 30.2 in North 2.5 mph 6.3 mph 96 % 0 in
03:20 47.3 °F 48.2 °F 30.2 in Calm   6.3 mph 96 % 0 in
03:25 47.3 °F 48.2 °F 30.2 in NNW 2.7 mph 5.4 mph 96 % 0 in
03:31 47.3 °F 48.2 °F 30.2 in NNW 4.3 mph 5.4 mph 96 % 0 in
03:36 47.3 °F 48.2 °F 30.2 in North 2 mph 4.9 mph 96 % 0 in
03:41 47.3 °F 48.2 °F 30.2 in NNW 4.3 mph 6 mph 97 % 0 in
03:46 47.1 °F 46.4 °F 30.2 in NNW 4.9 mph 6 mph 96 % 0 in
03:51 47.1 °F 46.4 °F 30.2 in Calm   5.4 mph 96 % 0 in
03:56 47.3 °F 48.2 °F 30.2 in NNW 3.1 mph 4.5 mph 96 % 0 in
04:01 47.1 °F 46.4 °F 30.2 in NNW 3.4 mph 4.5 mph 96 % 0 in
04:06 47.1 °F 46.4 °F 30.2 in Calm   6 mph 96 % 0 in
04:11 47.1 °F 46.4 °F 30.2 in NW 2.7 mph 6 mph 95 % 0 in
04:16 47.1 °F 46.4 °F 30.2 in NNW 2.5 mph 6 mph 95 % 0 in
04:21 47.1 °F 46.4 °F 30.2 in North 4 mph 6 mph 95 % 0 in
04:26 47.1 °F 46.4 °F 30.2 in NNW 5.6 mph 5.6 mph 95 % 0 in
04:31 47.1 °F 46.4 °F 30.2 in WNW 4.3 mph 6.5 mph 95 % 0 in
04:36 47.1 °F 46.4 °F 30.2 in WNW 3.1 mph 6.5 mph 95 % 0 in
04:41 47.1 °F 46.4 °F 30.2 in WNW 3.1 mph 6 mph 94 % 0 in
04:46 47.1 °F 46.4 °F 30.2 in WNW 5.6 mph 6 mph 94 % 0 in
04:51 47.1 °F 46.4 °F 30.2 in NW 4.3 mph 7.8 mph 93 % 0 in
04:56 47.1 °F 46.4 °F 30.2 in WNW 2.7 mph 7.8 mph 93 % 0 in
05:01 47.1 °F 44.6 °F 30.2 in NNW 3.1 mph 6 mph 92 % 0 in
05:06 47.1 °F 44.6 °F 30.2 in Calm   6.3 mph 92 % 0 in
05:11 47.1 °F 44.6 °F 30.2 in Calm   6.3 mph 91 % 0 in
05:16 47.1 °F 44.6 °F 30.2 in Calm   4.5 mph 91 % 0 in
05:21 47.1 °F 44.6 °F 30.2 in Calm   4.5 mph 91 % 0 in
05:26 47.1 °F 44.6 °F 30.2 in West 1.3 mph 4 mph 91 % 0 in
05:31 46.9 °F 44.6 °F 30.2 in WNW 2 mph 3.8 mph 89 % 0 in
05:37 46.9 °F 44.6 °F 30.2 in WNW 6 mph 6.3 mph 88 % 0 in
05:42 47.1 °F 44.6 °F 30.2 in West 2.2 mph 6.3 mph 88 % 0 in
05:47 46.9 °F 44.6 °F 30.2 in NW 2.9 mph 4.9 mph 88 % 0 in
05:52 47.1 °F 44.6 °F 30.2 in NW 2.7 mph 5.8 mph 87 % 0 in
05:55 47.1 °F 44.6 °F 30.2 in NNW 3.1 mph 5.8 mph 87 % 0 in
06:00 47.1 °F 44.6 °F 30.2 in NNE 6.3 mph 6.3 mph 87 % 0 in
06:05 47.1 °F 42.8 °F 30.2 in West 1.1 mph 7.8 mph 86 % 0 in
06:10 47.1 °F 42.8 °F 30.2 in NNW 2 mph 7.8 mph 86 % 0 in
06:15 47.1 °F 42.8 °F 30.2 in NNW 4.3 mph 7.8 mph 86 % 0 in
06:20 47.1 °F 42.8 °F 30.2 in NNW 2.7 mph 7.2 mph 85 % 0 in
06:25 47.1 °F 42.8 °F 30.1 in North 3.1 mph 7.4 mph 85 % 0 in
06:27 47.1 °F 42.8 °F 30.1 in WNW 4.3 mph 7.4 mph 85 % 0 in
06:32 47.1 °F 42.8 °F 30.1 in Calm   5.8 mph 85 % 0 in
06:37 47.1 °F 42.8 °F 30.1 in NNW 4.3 mph 6.9 mph 84 % 0 in
06:42 47.1 °F 42.8 °F 30.1 in NNW 3.8 mph 6.9 mph 85 % 0 in
06:47 47.1 °F 42.8 °F 30.1 in WNW 1.3 mph 5.6 mph 84 % 0 in
06:52 47.1 °F 42.8 °F 30.1 in NW 6 mph 6.5 mph 84 % 0 in
06:57 47.3 °F 42.8 °F 30.1 in NNW 2.5 mph 6.5 mph 84 % 0 in
07:02 47.3 °F 42.8 °F 30.1 in North 3.6 mph 6 mph 84 % 0 in
07:07 47.3 °F 42.8 °F 30.2 in North 2.9 mph 8.5 mph 84 % 0 in
07:13 47.3 °F 42.8 °F 30.2 in Calm   8.5 mph 84 % 0 in
07:18 47.3 °F 42.8 °F 30.2 in NNW 2.7 mph 6.3 mph 84 % 0 in
07:23 47.5 °F 42.8 °F 30.2 in North 5.8 mph 6.3 mph 83 % 0 in
07:28 47.5 °F 42.8 °F 30.2 in NNW 3.1 mph 6 mph 83 % 0 in
07:33 47.5 °F 42.8 °F 30.2 in North 8.7 mph 8.7 mph 83 % 0 in
07:38 47.7 °F 42.8 °F 30.1 in West 2.9 mph 8.7 mph 82 % 0 in
07:43 47.7 °F 42.8 °F 30.1 in NNW 0.9 mph 7.2 mph 81 % 0 in
07:48 47.7 °F 42.8 °F 30.1 in NNW 2.2 mph 7.4 mph 81 % 0 in
07:53 47.8 °F 42.8 °F 30.1 in WNW 3.1 mph 7.8 mph 81 % 0 in
07:58 47.8 °F 42.8 °F 30.1 in North 3.6 mph 7.8 mph 82 % 0 in
08:03 47.8 °F 42.8 °F 30.1 in Calm   6.5 mph 82 % 0 in
08:08 47.8 °F 42.8 °F 30.2 in WNW 3.4 mph 6.5 mph 83 % 0 in
08:13 48 °F 42.8 °F 30.2 in WNW 2.7 mph 6.3 mph 83 % 0 in
08:18 48 °F 42.8 °F 30.2 in North 3.6 mph 7.2 mph 83 % 0 in
08:23 48 °F 44.6 °F 30.1 in West 7.2 mph 8.7 mph 84 % 0 in
08:28 48 °F 44.6 °F 30.1 in NNW 4 mph 8.7 mph 85 % 0 in
08:33 48 °F 44.6 °F 30.1 in NNE 4.3 mph 7.2 mph 86 % 0 in
08:38 48 °F 44.6 °F 30.2 in NW 2.7 mph 6.3 mph 87 % 0 in
08:43 48 °F 44.6 °F 30.2 in NW 5.6 mph 7.8 mph 88 % 0 in
08:48 48.2 °F 46.4 °F 30.2 in NW 2.7 mph 7.8 mph 89 % 0 in
08:53 48 °F 46.4 °F 30.2 in WNW 4.7 mph 7.4 mph 90 % 0 in
08:59 48.2 °F 46.4 °F 30.2 in North 3.6 mph 6 mph 90 % 0 in
09:04 48.2 °F 46.4 °F 30.2 in NNW 3.6 mph 6.3 mph 91 % 0 in
09:09 48.4 °F 46.4 °F 30.2 in North 4.3 mph 7.4 mph 92 % 0 in
09:14 48.6 °F 46.4 °F 30.2 in North 2 mph 7.4 mph 92 % 0 in
09:19 48.7 °F 48.2 °F 30.2 in WNW 3.4 mph 6.5 mph 93 % 0 in
09:24 48.7 °F 48.2 °F 30.2 in NNW 1.1 mph 6.5 mph 93 % 0 in
09:29 48.9 °F 48.2 °F 30.2 in North 2.9 mph 7.6 mph 93 % 0 in
09:34 48.9 °F 48.2 °F 30.2 in North 4 mph 8.7 mph 93 % 0 in
09:39 48.9 °F 48.2 °F 30.2 in NNE 3.8 mph 8.7 mph 93 % 0 in
09:40 48.9 °F 48.2 °F 30.2 in North 6.5 mph 8.5 mph 94 % 0 in
09:45 48.7 °F 48.2 °F 30.2 in NW 6.5 mph 8.5 mph 94 % 0 in
09:50 48.7 °F 48.2 °F 30.2 in NNW 5.4 mph 8.5 mph 95 % 0 in
09:55 49.1 °F 48.2 °F 30.2 in NE 2.5 mph 8.7 mph 96 % 0 in
10:00 49.5 °F 48.2 °F 30.2 in North 2.7 mph 8.7 mph 96 % 0 in
10:02 49.5 °F 48.2 °F 30.2 in NNW 2.9 mph 8.7 mph 96 % 0 in
10:07 49.5 °F 48.2 °F 30.2 in WNW 5.8 mph 7.8 mph 96 % 0 in
10:12 49.5 °F 48.2 °F 30.2 in NNW 5.4 mph 9.6 mph 95 % 0 in
10:17 49.8 °F 50 °F 30.2 in NNW 3.6 mph 9.6 mph 96 % 0 in
10:22 49.8 °F 50 °F 30.2 in NNW 5.4 mph 7.8 mph 96 % 0 in
10:27 50 °F 48.2 °F 30.2 in NW 9.8 mph 10.1 mph 95 % 0 in
10:33 50.2 °F 48.2 °F 30.2 in North 4.3 mph 10.1 mph 95 % 0 in
10:38 50.5 °F 48.2 °F 30.2 in WNW 7.4 mph 9.8 mph 94 % 0 in
10:43 50.5 °F 48.2 °F 30.2 in North 5.8 mph 7.4 mph 94 % 0 in
10:48 50.7 °F 48.2 °F 30.2 in North 6.5 mph 7.4 mph 94 % 0 in
10:53 50.5 °F 48.2 °F 30.2 in WNW 3.6 mph 8.7 mph 93 % 0 in
10:58 50.4 °F 48.2 °F 30.2 in Calm   8.7 mph 93 % 0 in
11:03 50.4 °F 48.2 °F 30.2 in West 2 mph 7.8 mph 94 % 0 in
11:08 50.2 °F 48.2 °F 30.2 in North 2.7 mph 8.1 mph 94 % 0 in
11:13 50.2 °F 48.2 °F 30.2 in WNW 5.8 mph 8.1 mph 95 % 0 in
11:18 50.4 °F 50 °F 30.2 in West 3.8 mph 7.8 mph 95 % 0 in
11:23 50.4 °F 50 °F 30.2 in NNW 8.7 mph 8.7 mph 96 % 0 in
11:28 50.4 °F 50 °F 30.2 in NW 4.3 mph 8.7 mph 96 % 0 in
11:33 50.2 °F 50 °F 30.2 in SW 4.9 mph 8.7 mph 96 % 0 in
11:38 50.2 °F 50 °F 30.2 in West 5.8 mph 8.1 mph 96 % 0 in
11:43 50.2 °F 50 °F 30.2 in NNW 3.4 mph 8.1 mph 97 % 0 in
11:48 50.4 °F 50 °F 30.2 in WNW 4 mph 8.1 mph 97 % 0 in
11:53 50.7 °F 50 °F 30.2 in North 4.9 mph 5.8 mph 97 % 0 in
11:58 50.7 °F 50 °F 30.2 in WNW 4.9 mph 6.5 mph 97 % 0 in
12:03 50.7 °F 50 °F 30.2 in NNW 1.1 mph 8.1 mph 97 % 0 in
12:08 50.5 °F 50 °F 30.2 in North 2.5 mph 8.1 mph 97 % 0 in
12:13 50.7 °F 50 °F 30.2 in NNE 6.3 mph 8.1 mph 97 % 0 in
12:18 50.9 °F 50 °F 30.2 in NNE 4.3 mph 8.1 mph 97 % 0 in
12:23 51.1 °F 50 °F 30.2 in NW 2.9 mph 9.4 mph 97 % 0 in
12:28 51.1 °F 50 °F 30.2 in North 7.8 mph 9.4 mph 97 % 0 in
12:34 51.1 °F 50 °F 30.2 in NNE 8.7 mph 8.7 mph 97 % 0 in
12:39 50.9 °F 50 °F 30.2 in North 8.1 mph 8.9 mph 97 % 0 in
12:44 50.9 °F 50 °F 30.2 in NNW 8.1 mph 10.3 mph 97 % 0.01 in
12:49 51.1 °F 50 °F 30.2 in NW 4.3 mph 11 mph 97 % 0.01 in
12:54 51.4 °F 51.8 °F 30.2 in North 4 mph 11 mph 98 % 0.01 in
12:59 51.6 °F 51.8 °F 30.2 in NNW 5.8 mph 8.1 mph 98 % 0.01 in
13:04 51.3 °F 51.8 °F 30.2 in NW 4.3 mph 8.1 mph 98 % 0.01 in
13:09 51.1 °F 50 °F 30.2 in NW 12.3 mph 14.3 mph 97 % 0.01 in
13:14 51.1 °F 50 °F 30.2 in NNE 3.4 mph 14.3 mph 97 % 0.01 in
13:19 51.1 °F 51.8 °F 30.2 in North 5.4 mph 12.3 mph 98 % 0.01 in
13:24 51.3 °F 51.8 °F 30.1 in NNE 10.3 mph 12.1 mph 98 % 0.01 in
13:29 51.3 °F 51.8 °F 30.1 in North 4.3 mph 13.2 mph 98 % 0.01 in
13:34 51.3 °F 51.8 °F 30.1 in North 7.8 mph 13.2 mph 98 % 0.01 in
13:39 51.3 °F 51.8 °F 30.2 in North 7.8 mph 13.2 mph 98 % 0.01 in
13:44 51.3 °F 51.8 °F 30.2 in NNW 5.4 mph 13.2 mph 98 % 0 in
13:49 51.4 °F 50 °F 30.2 in NE 4.7 mph 13.2 mph 97 % 0 in
13:54 51.4 °F 51.8 °F 30.2 in North 8.7 mph 13.2 mph 98 % 0 in
13:59 51.4 °F 51.8 °F 30.2 in North 4.9 mph 9.8 mph 98 % 0 in
14:04 51.4 °F 51.8 °F 30.2 in NNE 6.5 mph 11 mph 98 % 0 in
14:09 51.6 °F 51.8 °F 30.2 in North 2.7 mph 11 mph 98 % 0 in
14:14 52.2 °F 51.8 °F 30.2 in North 10.1 mph 10.7 mph 98 % 0 in
14:19 52.3 °F 51.8 °F 30.2 in NNE 7.2 mph 10.5 mph 98 % 0 in
14:24 52 °F 51.8 °F 30.2 in North 5.8 mph 10.7 mph 98 % 0 in
14:29 52.2 °F 51.8 °F 30.2 in NNW 8.5 mph 11 mph 97 % 0 in
14:34 52.3 °F 51.8 °F 30.2 in North 7.4 mph 11 mph 97 % 0 in
14:39 52.2 °F 51.8 °F 30.2 in North 9.8 mph 12.1 mph 97 % 0 in
14:45 52.2 °F 51.8 °F 30.2 in NNW 5.8 mph 12.8 mph 97 % 0 in
14:49 52.3 °F 51.8 °F 30.2 in NNW 9.6 mph 12.8 mph 97 % 0 in
14:55 52.3 °F 51.8 °F 30.2 in NNW 7.6 mph 12.1 mph 98 % 0 in
14:59 52.5 °F 51.8 °F 30.2 in NNW 7.8 mph 12.1 mph 98 % 0 in
15:04 52.2 °F 51.8 °F 30.2 in NNW 4.3 mph 12.5 mph 97 % 0 in
15:10 52.2 °F 51.8 °F 30.2 in NNW 9.8 mph 12.5 mph 97 % 0 in
15:15 52.3 °F 51.8 °F 30.2 in NNW 6.3 mph 12.5 mph 98 % 0 in
15:20 52.5 °F 51.8 °F 30.2 in North 4.9 mph 10.3 mph 98 % 0 in
15:25 52.7 °F 53.6 °F 30.2 in North 8.5 mph 12.5 mph 98 % 0 in
15:30 52.5 °F 51.8 °F 30.2 in NNE 3.6 mph 12.5 mph 98 % 0 in
15:35 52.5 °F 51.8 °F 30.2 in North 8.1 mph 9.6 mph 98 % 0 in
15:40 53.2 °F 53.6 °F 30.2 in North 8.1 mph 16.8 mph 98 % 0 in
15:45 53.2 °F 53.6 °F 30.2 in NE 8.5 mph 16.8 mph 98 % 0 in
15:50 53.1 °F 51.8 °F 30.2 in NE 12.8 mph 15.4 mph 97 % 0 in
15:55 52.9 °F 51.8 °F 30.2 in NNE 8.5 mph 15.4 mph 96 % 0 in
16:00 52.7 °F 51.8 °F 30.2 in NNE 12.1 mph 14.3 mph 96 % 0 in
16:05 52.7 °F 51.8 °F 30.2 in North 7.6 mph 14.3 mph 96 % 0 in
16:10 52.5 °F 51.8 °F 30.2 in North 10.1 mph 13 mph 96 % 0 in
16:15 52.3 °F 51.8 °F 30.2 in North 8.7 mph 13.2 mph 96 % 0 in
16:20 52.2 °F 51.8 °F 30.2 in North 4.3 mph 13.2 mph 96 % 0 in
16:25 52.2 °F 51.8 °F 30.2 in NNW 8.5 mph 10.7 mph 97 % 0 in
16:30 52.5 °F 51.8 °F 30.2 in North 10.1 mph 13.2 mph 97 % 0 in
16:35 52.7 °F 51.8 °F 30.2 in North 12.8 mph 14.3 mph 97 % 0 in
16:40 52.9 °F 51.8 °F 30.1 in North 6.3 mph 14.3 mph 97 % 0 in
16:45 52.7 °F 51.8 °F 30.1 in NNE 9.2 mph 12.8 mph 96 % 0 in
16:50 53.1 °F 51.8 °F 30.1 in North 11 mph 13.2 mph 96 % 0.01 in
16:56 54 °F 53.6 °F 30.2 in North 6 mph 16.8 mph 95 % 0.01 in
17:01 55.4 °F 53.6 °F 30.2 in North 10.3 mph 16.8 mph 94 % 0.01 in
17:06 56.8 °F 55.4 °F 30.2 in NNW 13 mph 13 mph 94 % 0.01 in
17:11 56.5 °F 55.4 °F 30.2 in NNW 10.7 mph 13 mph 92 % 0.01 in
17:16 55.4 °F 53.6 °F 30.2 in NNE 10.5 mph 14.8 mph 89 % 0.01 in
17:21 54.7 °F 51.8 °F 30.2 in NNE 10.5 mph 14.8 mph 88 % 0.01 in
17:26 54.1 °F 51.8 °F 30.2 in NNE 10.3 mph 14.5 mph 88 % 0.01 in
17:31 54 °F 50 °F 30.2 in North 8.7 mph 14.5 mph 88 % 0.01 in
17:36 54 °F 50 °F 30.2 in North 9.6 mph 14.1 mph 88 % 0.01 in
17:41 53.8 °F 50 °F 30.2 in NNE 9.2 mph 14.5 mph 88 % 0.01 in
17:46 54.1 °F 51.8 °F 30.2 in NNW 17.2 mph 17.4 mph 87 % 0.01 in
17:51 54.7 °F 51.8 °F 30.2 in NNE 11.9 mph 17.4 mph 87 % 0 in
17:56 54.9 °F 51.8 °F 30.2 in NNW 7.8 mph 11.9 mph 87 % 0 in
18:01 55.9 °F 51.8 °F 30.2 in North 8.5 mph 12.8 mph 84 % 0 in
18:06 56.3 °F 51.8 °F 30.2 in NNE 7.8 mph 18.1 mph 82 % 0 in
18:11 56.7 °F 51.8 °F 30.2 in NNE 11 mph 18.1 mph 80 % 0 in
18:16 55.4 °F 50 °F 30.2 in North 12.3 mph 16.6 mph 80 % 0 in
18:21 54.9 °F 50 °F 30.2 in North 6.9 mph 17.4 mph 81 % 0 in
18:26 54.7 °F 50 °F 30.2 in North 9.6 mph 17.4 mph 82 % 0 in
18:31 55 °F 50 °F 30.2 in NNE 7.8 mph 14.3 mph 82 % 0 in
18:36 55.4 °F 50 °F 30.2 in NNW 9.8 mph 14.5 mph 81 % 0 in
18:42 55.4 °F 50 °F 30.2 in North 10.5 mph 15.2 mph 81 % 0 in
18:47 55.2 °F 50 °F 30.2 in North 9.8 mph 15.2 mph 81 % 0 in
18:52 54.5 °F 50 °F 30.2 in NNW 8.7 mph 14.8 mph 80 % 0 in
18:57 54.3 °F 48.2 °F 30.2 in NW 7.2 mph 15.2 mph 80 % 0 in
19:02 54.1 °F 48.2 °F 30.2 in NNE 5.4 mph 15.2 mph 81 % 0 in
19:07 53.8 °F 48.2 °F 30.2 in NNE 9.8 mph 19.9 mph 82 % 0 in
19:12 53.6 °F 48.2 °F 30.2 in NNE 13 mph 19.9 mph 82 % 0 in
19:17 53.2 °F 48.2 °F 30.2 in North 10.1 mph 17.4 mph 82 % 0 in
19:22 53.2 °F 48.2 °F 30.2 in NE 11 mph 14.3 mph 82 % 0 in
19:27 53.6 °F 48.2 °F 30.2 in NNE 14.3 mph 14.3 mph 82 % 0 in
19:32 53.6 °F 48.2 °F 30.2 in NNE 8.9 mph 14.3 mph 81 % 0 in
19:37 54.1 °F 48.2 °F 30.2 in NNE 7.6 mph 14.5 mph 80 % 0 in
19:42 53.8 °F 48.2 °F 30.2 in NE 9.6 mph 14.8 mph 78 % 0 in
19:47 53.1 °F 46.4 °F 30.2 in North 10.7 mph 14.8 mph 78 % 0 in
19:52 52.9 °F 46.4 °F 30.2 in NNE 6.3 mph 11 mph 78 % 0 in
19:58 52.3 °F 46.4 °F 30.2 in NNE 3.1 mph 13 mph 78 % 0 in
20:03 52.5 °F 46.4 °F 30.2 in North 8.7 mph 17.2 mph 79 % 0 in
20:08 52.3 °F 46.4 °F 30.2 in NNE 9.2 mph 17.2 mph 77 % 0 in
20:13 52.2 °F 46.4 °F 30.2 in ENE 8.7 mph 12.1 mph 78 % 0 in
20:16 52 °F 46.4 °F 30.2 in NNW 7.4 mph 12.1 mph 79 % 0 in
20:21 51.6 °F 46.4 °F 30.2 in North 9.6 mph 12.1 mph 79 % 0 in
20:26 51.4 °F 44.6 °F 30.2 in North 8.1 mph 15.2 mph 78 % 0 in
20:31 51.3 °F 44.6 °F 30.2 in North 10.7 mph 15.9 mph 78 % 0 in
20:36 51.1 °F 44.6 °F 30.2 in North 6.3 mph 15.9 mph 78 % 0 in
20:41 50.9 °F 44.6 °F 30.2 in North 8.1 mph 11 mph 78 % 0 in
20:43 50.7 °F 44.6 °F 30.2 in North 7.8 mph 12.8 mph 79 % 0 in
20:48 50.7 °F 44.6 °F 30.2 in North 7.8 mph 13.6 mph 79 % 0 in
20:53 50.4 °F 44.6 °F 30.2 in NNE 9.8 mph 13.6 mph 79 % 0 in
20:58 50.2 °F 44.6 °F 30.2 in East 5.8 mph 13.2 mph 79 % 0 in
21:03 50 °F 44.6 °F 30.2 in North 8.1 mph 11.2 mph 80 % 0 in
21:08 49.8 °F 44.6 °F 30.2 in NNE 7.2 mph 13.2 mph 80 % 0 in
21:13 49.6 °F 44.6 °F 30.2 in NNE 9.6 mph 13.2 mph 81 % 0 in
21:18 49.5 °F 44.6 °F 30.2 in North 10.5 mph 11 mph 81 % 0 in
21:22 49.3 °F 44.6 °F 30.2 in North 5.4 mph 11 mph 82 % 0 in
21:27 48.9 °F 44.6 °F 30.2 in North 8.5 mph 10.5 mph 82 % 0 in
21:32 48.7 °F 44.6 °F 30.2 in North 6.5 mph 10.7 mph 83 % 0 in
21:37 48.7 °F 44.6 °F 30.2 in NE 7.2 mph 10.7 mph 83 % 0 in
21:42 48.6 °F 44.6 °F 30.2 in North 8.1 mph 10.3 mph 84 % 0 in
21:47 48.4 °F 44.6 °F 30.2 in North 5.6 mph 12.1 mph 84 % 0 in
21:52 48.2 °F 44.6 °F 30.2 in NNE 6.3 mph 12.1 mph 84 % 0 in
21:57 48 °F 44.6 °F 30.2 in North 8.1 mph 9.8 mph 85 % 0 in
22:02 47.8 °F 44.6 °F 30.2 in NNE 5.8 mph 10.5 mph 86 % 0 in
22:07 47.7 °F 44.6 °F 30.2 in NNE 6 mph 10.7 mph 86 % 0 in
22:12 47.7 °F 44.6 °F 30.2 in NNE 3.6 mph 10.7 mph 86 % 0 in
22:17 47.5 °F 44.6 °F 30.2 in North 4.9 mph 10.3 mph 86 % 0 in
22:23 47.3 °F 44.6 °F 30.2 in NE 7.4 mph 9.6 mph 86 % 0 in
22:28 47.3 °F 44.6 °F 30.2 in North 5.4 mph 9.6 mph 86 % 0 in
22:33 47.1 °F 42.8 °F 30.2 in NNE 6 mph 8.5 mph 86 % 0 in
22:38 47.1 °F 44.6 °F 30.2 in North 5.8 mph 8.7 mph 87 % 0 in
22:43 46.9 °F 44.6 °F 30.2 in NNE 2.7 mph 8.7 mph 87 % 0 in
22:48 46.8 °F 42.8 °F 30.2 in WNW 3.4 mph 8.5 mph 87 % 0 in
22:53 46.8 °F 42.8 °F 30.2 in NE 5.4 mph 8.7 mph 87 % 0 in
22:58 46.6 °F 42.8 °F 30.2 in North 6.9 mph 8.7 mph 87 % 0 in
23:03 46.4 °F 42.8 °F 30.2 in NNW 4 mph 7.8 mph 88 % 0 in
23:08 46.2 °F 42.8 °F 30.2 in NNW 5.4 mph 7.8 mph 88 % 0 in
23:13 46 °F 42.8 °F 30.2 in North 5.4 mph 8.9 mph 88 % 0 in
23:18 45.9 °F 42.8 °F 30.2 in NNW 5.4 mph 8.9 mph 88 % 0 in
23:23 45.9 °F 42.8 °F 30.2 in NNW 3.4 mph 7.4 mph 88 % 0 in
23:24 45.9 °F 42.8 °F 30.2 in NNW 6.3 mph 7.4 mph 89 % 0 in
23:29 45.7 °F 42.8 °F 30.2 in NNE 3.6 mph 6.5 mph 89 % 0 in
23:35 45.7 °F 42.8 °F 30.2 in NNE 8.1 mph 8.1 mph 89 % 0 in
23:40 45.5 °F 42.8 °F 30.2 in North 6.3 mph 8.1 mph 89 % 0 in
23:45 45.3 °F 42.8 °F 30.2 in NNW 7.4 mph 7.4 mph 89 % 0 in
23:50 45.3 °F 42.8 °F 30.2 in North 7.2 mph 7.4 mph 89 % 0 in
23:55 45.3 °F 42.8 °F 30.2 in North 5.8 mph 8.7 mph 89 % 0 in
Le Gheer Warneton
Courtoisie de Weather Underground - 2.25 mb

Mise a jour : 18/12/2017 21:24:12
Généré par Cumulus 1.9.4 (1099)